Weather History for Merida, Mexico

Change the Weather History Date:

Saturday, October 12, 2013

  Actual Average Record
Temperature  
Mean Temperature 84 °F -  
Max Temperature 93 °F 89 °F 96 °F (2005)
Min Temperature 74 °F 72 °F 59 °F (1998)
Cooling Degree Days 18    
Growing Degree Days 34 (Base 50)    
Moisture  
Dew Point 74 °F    
Average Humidity 77    
Maximum Humidity 94    
Minimum Humidity 55    
Precipitation  
Precipitation 0.00 in - - ()
Sea Level Pressure  
Sea Level Pressure 29.94 in    
Wind  
Wind Speed 6 mph ()    
Max Wind Speed 14 mph    
Max Gust Speed -    
Visibility 6.2 miles    
Events      
Averages and records for this station are not official NWS values.
T = Trace of Precipitation, MM = Missing Value Source: Averaged Metar Reports

Daily Weather History Graph

Daily Weather History Graph

Search for Another Location

Airport:

Trip Planner

Search our weather history database for the weather conditions in past years. The results will help you decide how hot, cold, wet, or windy it might be!

Date:

Astronomy

Oct. 12, 2013 Rise Set
Actual Time 6:53 AM CDT 6:36 PM CDT
Civil Twilight 6:30 AM CDT 6:58 PM CDT
Nautical Twilight 6:05 AM CDT 7:24 PM CDT
Astronomical Twilight 5:39 AM CDT 7:50 PM CDT
Moon 2:03 PM CDT (10/12) 12:43 AM CDT (10/12)
Length of Visible Light 12h 28m
Length of Day
11h 43m
First Quarter, 59% of the Moon is Illuminated
Oct 12
First Quarter
Oct 18
Full
Oct 26
Last Quarter
Nov 3
New
Nov 9
First Quarter

Hourly Weather History & Observations

Time (CDT) Temp. Heat Index Dew Point Humidity Pressure Visibility Wind Dir Wind Speed Gust Speed Precip Events Conditions
12:50 AM 78 °F - 76 °F 93% 29.94 in 3 mi East 4.5 mph - -   Scattered Clouds
12:53 AM 77.0 °F - 73.4 °F 89% 29.95 in 7.0 mi East 4.6 mph - N/A   Clear
1:55 AM 77.0 °F - 73.4 °F 89% 29.92 in 6.0 mi East 4.6 mph - N/A   Clear
2:53 AM 77.0 °F - 73.4 °F 89% 29.92 in 6.0 mi East 4.6 mph - N/A   Clear
3:50 AM 75.2 °F - 73.4 °F 94% 29.94 in 6.0 mi East 4.6 mph - N/A   Clear
4:52 AM 75.2 °F - 73.4 °F 94% 29.92 in 6.0 mi ENE 4.6 mph - N/A   Clear
5:53 AM 75.2 °F - 73.4 °F 94% 29.93 in 6.0 mi East 6.9 mph - N/A   Clear
6:50 AM 76 °F - 74 °F 92% 29.96 in 6 mi ESE 2.2 mph - -   Clear
6:54 AM 75.2 °F - 73.4 °F 94% 29.96 in 3.0 mi East 5.8 mph - N/A   Clear
7:43 AM 77.0 °F - 73.4 °F 89% 29.96 in 4.0 mi East 10.4 mph - N/A   Clear
8:46 AM 80.6 °F 85.4 °F 73.4 °F 79% 29.97 in 6.0 mi East 6.9 mph - N/A   Clear
9:46 AM 82.4 °F 88.2 °F 73.4 °F 74% 29.97 in 7.0 mi East 5.8 mph - N/A   Scattered Clouds
9:50 AM 85 °F - 78 °F 73% 29.99 in 6 mi SSE 6.7 mph - -   Scattered Clouds
10:43 AM 86.0 °F 93.4 °F 73.4 °F 66% 29.97 in 7.0 mi ESE 6.9 mph - N/A   Mostly Cloudy
11:43 AM 86.0 °F 91.8 °F 71.6 °F 62% 29.97 in 7.0 mi ESE 8.1 mph - N/A   Mostly Cloudy
12:45 PM 89.6 °F 96.2 °F 71.6 °F 55% 29.95 in 7.0 mi East 8.1 mph - N/A   Mostly Cloudy
12:50 PM 90 °F - 76 °F 56% 29.94 in 6 mi SE 4.5 mph - -   Partly Cloudy
1:45 PM 89.6 °F 96.2 °F 71.6 °F 55% 29.91 in 7.0 mi East 9.2 mph - N/A   Mostly Cloudy
2:50 PM 87.8 °F 92.6 °F 69.8 °F 55% 29.89 in 7.0 mi East 9.2 mph - N/A   Mostly Cloudy
3:44 PM 86.0 °F 93.4 °F 73.4 °F 66% 29.89 in 7.0 mi ENE 6.9 mph - N/A   Mostly Cloudy
3:50 PM 89 °F - 76 °F 57% 29.89 in 6 mi SE 2.2 mph - -   Scattered Clouds
4:53 PM 84.2 °F 90.9 °F 73.4 °F 70% 29.90 in 7.0 mi NE 9.2 mph - N/A   Mostly Cloudy
5:43 PM 84.2 °F 90.9 °F 73.4 °F 70% 29.91 in 7.0 mi NE 11.5 mph - N/A   Scattered Clouds
6:50 PM 83 °F - 77 °F 78% 29.94 in 6 mi NNE 11.2 mph - -   Partly Cloudy
6:53 PM 82.4 °F 87.2 °F 71.6 °F 70% 29.93 in 7.0 mi NE 13.8 mph - N/A   Clear
7:54 PM 80.6 °F 85.4 °F 73.4 °F 79% 29.93 in 7.0 mi ENE 11.5 mph - N/A   Clear
8:47 PM 80.6 °F 85.4 °F 73.4 °F 79% 29.96 in 7.0 mi ENE 11.5 mph - N/A   Clear
9:50 PM 81 °F - 76 °F 80% 29.98 in 3 mi ENE 6.7 mph - -   Partly Cloudy
9:51 PM 78.8 °F - 73.4 °F 83% 30.01 in 7.0 mi ENE 9.2 mph - N/A   Clear
10:46 PM 78.8 °F - 73.4 °F 83% 29.99 in 7.0 mi ENE 8.1 mph - N/A   Clear
11:47 PM 78.8 °F - 73.4 °F 83% 29.99 in 7.0 mi East 9.2 mph - N/A   Clear